When you browse on this site, cookies collect data to enhance your experience and personalize the content and advertising you see.
Visit our Privacy Policy to learn more. By continuing to use the site, you agree to this use of cookies and data.
  • Em Portugal
  • Lista de países
  • Para 7 dias
  • Temperatura da água
  • Mapas de satélite
  • Mapa do tempo
  • Widgets de tempo
  • user-avatar
    Iniciar Sessão

    Previsão horária em Arbela

    Hoje, 20 Novembro, Terça-feira

    Tempo Temperatura Precipitação Vento Pressão Humidade
    00:00 +15°C° 0 mm 1 m/s 729 mmHg 46%
    01:00 +14°C° 0 mm 1 m/s 729 mmHg 46%
    02:00 +14°C° 0 mm 1 m/s 729 mmHg 46%
    03:00 +14°C° 0 mm 1 m/s 729 mmHg 45%
    04:00 +14°C° 0 mm 1 m/s 729 mmHg 46%
    05:00 +14°C° 0 mm 1 m/s 729 mmHg 47%
    06:00 +13°C° 0 mm 1 m/s 729 mmHg 48%
    07:00 +14°C° 0 mm 1 m/s 729 mmHg 44%
    08:00 +16°C° 0 mm 1 m/s 729 mmHg 40%
    09:00 +18°C° 0 mm 1 m/s 729 mmHg 36%
    10:00 +19°C° 0 mm 1 m/s 729 mmHg 34%
    11:00 +20°C° 0 mm 1 m/s 729 mmHg 32%
    12:00 +21°C° 0 mm 1 m/s 729 mmHg 29%
    13:00 +20°C° 0 mm 2 m/s 729 mmHg 29%
    14:00 +20°C° 0 mm 2 m/s 729 mmHg 29%
    15:00 +21°C° 0 mm 2 m/s 728 mmHg 28%
    16:00 +19°C° 0 mm 2 m/s 728 mmHg 33%
    17:00 +18°C° 0 mm 2 m/s 728 mmHg 37%
    18:00 +18°C° 0 mm 1 m/s 728 mmHg 41%
    19:00 +18°C° 0 mm 1 m/s 728 mmHg 43%
    20:00 +16°C° 0 mm 1 m/s 728 mmHg 44%
    21:00 +15°C° 0 mm 0 m/s 728 mmHg 46%
    22:00 +14°C° 0 mm 0 m/s 728 mmHg 47%
    23:00 +14°C° 0 mm 0 m/s 728 mmHg 48%

    Amanhã, 21 Novembro, Quarta-feira

    Tempo Temperatura Precipitação Vento Pressão Humidade
    00:00 +15°C° 0 mm 1 m/s 728 mmHg 49%
    01:00 +14°C° 0 mm 1 m/s 728 mmHg 50%
    02:00 +14°C° 0 mm 1 m/s 728 mmHg 51%
    03:00 +14°C° 0 mm 1 m/s 728 mmHg 52%
    04:00 +13°C° 0 mm 1 m/s 728 mmHg 52%
    05:00 +13°C° 0 mm 1 m/s 727 mmHg 52%
    06:00 +13°C° 0 mm 1 m/s 727 mmHg 53%
    07:00 +14°C° 0 mm 1 m/s 728 mmHg 49%
    08:00 +15°C° 0 mm 1 m/s 728 mmHg 46%
    09:00 +16°C° 0 mm 1 m/s 728 mmHg 43%
    10:00 +18°C° 0 mm 1 m/s 728 mmHg 41%
    11:00 +18°C° 0 mm 2 m/s 728 mmHg 40%
    12:00 +19°C° 0 mm 2 m/s 728 mmHg 39%
    13:00 +19°C° 0 mm 2 m/s 727 mmHg 39%
    14:00 +19°C° 0 mm 2 m/s 727 mmHg 39%
    15:00 +20°C° 0 mm 2 m/s 727 mmHg 39%
    16:00 +20°C° 0 mm 1 m/s 727 mmHg 42%
    17:00 +19°C° 0 mm 1 m/s 727 mmHg 46%
    18:00 +18°C° 0 mm 1 m/s 727 mmHg 50%
    19:00 +18°C° 0 mm 1 m/s 727 mmHg 51%
    20:00 +16°C° 0 mm 1 m/s 727 mmHg 52%
    21:00 +16°C° 0 mm 1 m/s 727 mmHg 53%
    22:00 +16°C° 0 mm 1 m/s 727 mmHg 54%
    23:00 +16°C° 0 mm 2 m/s 727 mmHg 54%

    Depois de amanhã, 22 Novembro, Quinta-feira

    Tempo Temperatura Precipitação Vento Pressão Humidade
    00:00 +16°C° 0 mm 2 m/s 727 mmHg 55%
    01:00 +15°C° 0 mm 2 m/s 727 mmHg 55%
    02:00 +15°C° 0 mm 2 m/s 727 mmHg 55%
    03:00 +15°C° 0 mm 2 m/s 727 mmHg 56%
    04:00 +15°C° 0.1 mm 2 m/s 727 mmHg 57%
    05:00 +15°C° 0.1 mm 2 m/s 727 mmHg 58%
    06:00 +14°C° 0.1 mm 3 m/s 726 mmHg 59%
    07:00 +14°C° 0.1 mm 3 m/s 727 mmHg 59%
    08:00 +16°C° 0.1 mm 3 m/s 727 mmHg 58%
    09:00 +15°C° 0.1 mm 4 m/s 727 mmHg 57%
    10:00 +17°C° 0.1 mm 4 m/s 727 mmHg 56%
    11:00 +17°C° 0.1 mm 4 m/s 727 mmHg 55%
    12:00 +18°C° 0.1 mm 4 m/s 726 mmHg 53%
    13:00 +17°C° 0.9 mm 4 m/s 726 mmHg 59%
    14:00 +15°C° 0.9 mm 4 m/s 726 mmHg 64%
    15:00 +15°C° 0.9 mm 4 m/s 725 mmHg 70%
    16:00 +14°C° 0.7 mm 4 m/s 725 mmHg 70%
    17:00 +14°C° 0.7 mm 4 m/s 726 mmHg 71%
    18:00 +14°C° 0.7 mm 4 m/s 726 mmHg 71%
    19:00 +14°C° 0.3 mm 4 m/s 726 mmHg 70%
    20:00 +14°C° 0.3 mm 4 m/s 726 mmHg 69%
    21:00 +14°C° 0.3 mm 4 m/s 726 mmHg 68%
    22:00 +14°C° 0.1 mm 4 m/s 726 mmHg 68%
    23:00 +14°C° 0.1 mm 4 m/s 727 mmHg 68%

    23 Novembro, Sexta-feira

    Tempo Temperatura Precipitação Vento Pressão Humidade
    00:00 +14°C° 0.1 mm 4 m/s 727 mmHg 67%
    01:00 +14°C° 0.1 mm 3 m/s 726 mmHg 68%
    02:00 +14°C° 0.1 mm 3 m/s 726 mmHg 69%
    03:00 +13°C° 0.1 mm 3 m/s 726 mmHg 69%
    04:00 +13°C° 0.1 mm 3 m/s 726 mmHg 70%
    05:00 +13°C° 0.1 mm 3 m/s 726 mmHg 70%
    06:00 +13°C° 0.1 mm 3 m/s 726 mmHg 71%
    07:00 +14°C° 0 mm 3 m/s 727 mmHg 68%
    08:00 +14°C° 0 mm 3 m/s 727 mmHg 65%
    09:00 +16°C° 0 mm 3 m/s 727 mmHg 62%
    10:00 +17°C° 0 mm 3 m/s 727 mmHg 57%
    11:00 +18°C° 0 mm 3 m/s 727 mmHg 52%
    12:00 +19°C° 0 mm 3 m/s 726 mmHg 47%
    13:00 +19°C° 0 mm 3 m/s 726 mmHg 47%
    14:00 +19°C° 0 mm 3 m/s 726 mmHg 48%
    15:00 +19°C° 0 mm 2 m/s 725 mmHg 48%
    16:00 +18°C° 0 mm 2 m/s 725 mmHg 51%
    17:00 +18°C° 0 mm 2 m/s 726 mmHg 54%
    18:00 +17°C° 0 mm 2 m/s 726 mmHg 57%
    19:00 +16°C° 0 mm 1 m/s 726 mmHg 59%
    20:00 +16°C° 0 mm 1 m/s 726 mmHg 62%
    21:00 +16°C° 0 mm 1 m/s 726 mmHg 64%
    22:00 +15°C° 0 mm 1 m/s 727 mmHg 66%
    23:00 +15°C° 0 mm 1 m/s 727 mmHg 69%

    24 Novembro, Sábado

    Tempo Temperatura Precipitação Vento Pressão Humidade
    00:00 +14°C° 0 mm 1 m/s 727 mmHg 71%
    01:00 +14°C° 0 mm 1 m/s 727 mmHg 72%
    02:00 +14°C° 0 mm 1 m/s 727 mmHg 74%
    03:00 +13°C° 0 mm 0 m/s 727 mmHg 76%
    04:00 +12°C° 0 mm 0 m/s 727 mmHg 76%
    05:00 +12°C° 0 mm 0 m/s 727 mmHg 77%
    06:00 +12°C° 0 mm 0 m/s 727 mmHg 78%
    07:00 +13°C° 0 mm 0 m/s 728 mmHg 73%
    08:00 +13°C° 0 mm 0 m/s 728 mmHg 69%
    09:00 +14°C° 0 mm 0 m/s 729 mmHg 65%
    10:00 +16°C° 0 mm 1 m/s 728 mmHg 60%
    11:00 +18°C° 0 mm 1 m/s 728 mmHg 54%
    12:00 +19°C° 0 mm 1 m/s 728 mmHg 49%
    13:00 +19°C° 0 mm 1 m/s 728 mmHg 46%
    14:00 +20°C° 0 mm 1 m/s 728 mmHg 43%
    15:00 +21°C° 0 mm 1 m/s 728 mmHg 40%
    16:00 +20°C° 0 mm 1 m/s 728 mmHg 43%
    17:00 +19°C° 0 mm 1 m/s 728 mmHg 46%
    18:00 +18°C° 0 mm 1 m/s 729 mmHg 49%
    19:00 +18°C° 0 mm 1 m/s 729 mmHg 50%
    20:00 +18°C° 0 mm 1 m/s 729 mmHg 51%
    21:00 +16°C° 0 mm 2 m/s 729 mmHg 52%
    22:00 +16°C° 0.1 mm 2 m/s 729 mmHg 53%
    23:00 +16°C° 0.1 mm 2 m/s 729 mmHg 54%

    25 Novembro, Domingo

    Tempo Temperatura Precipitação Vento Pressão Humidade
    00:00 +16°C° 0.1 mm 2 m/s 729 mmHg 54%
    01:00 +15°C° 0 mm 2 m/s 728 mmHg 54%
    02:00 +15°C° 0 mm 2 m/s 728 mmHg 54%
    03:00 +15°C° 0 mm 2 m/s 728 mmHg 54%
    04:00 +15°C° 0.1 mm 2 m/s 728 mmHg 56%
    05:00 +15°C° 0.1 mm 2 m/s 728 mmHg 58%
    06:00 +14°C° 0.1 mm 2 m/s 727 mmHg 60%
    07:00 +14°C° 0.4 mm 2 m/s 727 mmHg 61%
    08:00 +14°C° 0.4 mm 2 m/s 727 mmHg 63%
    09:00 +14°C° 0.4 mm 2 m/s 727 mmHg 64%
    10:00 +14°C° 0.3 mm 2 m/s 727 mmHg 63%
    11:00 +15°C° 0.3 mm 2 m/s 727 mmHg 62%
    12:00 +15°C° 0.3 mm 2 m/s 726 mmHg 61%
    13:00 +15°C° 1 mm 2 m/s 726 mmHg 65%
    14:00 +14°C° 1 mm 2 m/s 726 mmHg 68%
    15:00 +14°C° 1 mm 2 m/s 726 mmHg 72%
    16:00 +14°C° 0.7 mm 2 m/s 726 mmHg 73%
    17:00 +13°C° 0.7 mm 2 m/s 726 mmHg 74%
    18:00 +13°C° 0.7 mm 2 m/s 727 mmHg 75%
    19:00 +13°C° 0.3 mm 2 m/s 727 mmHg 74%
    20:00 +13°C° 0.3 mm 2 m/s 727 mmHg 73%
    21:00 +13°C° 0.3 mm 2 m/s 727 mmHg 73%
    22:00 +13°C° 0.2 mm 2 m/s 727 mmHg 72%
    23:00 +13°C° 0.2 mm 2 m/s 727 mmHg 72%
    Mostrar mais